AE7VB Weather Reports


time (UTC)temp
C
wind
direction
speed
KPH
gust
KPH
rain 1hr
cm
rain 24hr
cm
rain mn
cm
humidity
%
barometer
mb
20260903113057 10 58 0.0 0.0 0.00 0.00 0.41 93 1016.1
20260903111532 10 61 0.0 0.0 0.00 0.00 0.41 92 1016.0
20260903110020 10 59 0.0 0.0 0.00 0.00 0.41 92 1015.9
20260903104533 10 28 0.0 0.0 0.00 0.00 0.38 92 1016.0
20260903103026 10 27 0.0 0.0 0.00 0.00 0.38 91 1016.0
20260903101553 10 27 0.0 0.0 0.00 0.00 0.33 91 1016.1
20260903100042 10 28 0.0 0.0 0.00 0.00 0.30 91 1015.8
20260903094518 11 27 0.0 0.0 0.00 0.00 0.28 91 1015.7
20260903093023 11 28 0.0 0.0 0.00 0.00 0.25 90 1015.7
20260903091549 11 27 0.0 0.0 0.00 0.00 0.23 90 1015.6
20260903090021 11 68 0.0 0.0 0.00 0.00 0.20 90 1015.4
20260903084548 11 24 0.0 0.0 0.00 0.00 0.18 89 1015.6
20260903083101 11 22 0.0 0.0 0.00 0.00 0.13 88 1015.6
20260903081529 11 76 0.0 0.0 0.00 0.00 0.10 87 1015.7
20260903080036 11 60 1.6 0.0 0.00 0.00 0.08 87 1015.3
20260903074542 12 60 0.0 0.0 0.00 0.00 0.08 86 1015.2
20260903073040 12 69 1.6 0.0 0.00 0.00 0.05 84 1015.1
20260903071508 12 69 0.0 0.0 0.00 0.00 0.03 82 1015.1
20260903070019 13 45 0.0 0.0 0.00 0.00 0.00 78 1014.9
20260903064545 13 70 0.0 0.0 0.00 0.00 0.00 74 1015.0
20260903063055 13 72 0.0 0.0 0.00 0.00 0.00 70 1014.7
20260903061552 13 78 0.0 0.0 0.00 0.00 0.00 70 1014.8
20260903060055 13 71 0.0 0.0 0.00 0.00 0.00 69 1014.7
20260903054540 13 64 1.6 0.0 0.00 0.00 0.00 69 1014.7
20260903053040 14 63 0.0 0.0 0.00 0.00 0.00 70 1014.4
20260903051541 15 38 1.6 0.0 0.00 0.00 0.00 68 1014.3
20260903050037 15 17 1.6 0.0 0.00 0.00 0.00 65 1014.1
20260903044507 16 104 0.0 0.0 0.00 0.00 0.00 64 1013.9
20260903043022 17 289 0.0 0.0 0.00 0.00 0.00 60 1013.6
20260903041541 17 284 1.6 0.0 0.00 0.00 0.00 57 1013.5
20260903040058 18 303 1.6 0.0 0.00 0.00 0.00 48 1013.5
20260903034512 19 225 3.2 0.0 0.00 0.00 0.00 37 1013.2
20260903033042 19 231 3.2 0.0 0.00 0.00 0.00 37 1013.1
20260903031523 19 190 1.6 0.0 0.00 0.00 0.00 37 1012.8
20260903030036 19 199 3.2 0.0 0.00 0.00 0.00 37 1012.5
20260903024536 19 187 3.2 0.0 0.00 0.00 0.00 36 1012.4
20260903023008 19 210 3.2 0.0 0.00 0.00 0.00 36 1012.3
20260903021536 20 150 1.6 0.0 0.00 0.00 0.00 36 1012.3
20260903020007 20 178 3.2 0.0 0.00 0.00 0.00 35 1012.4
20260903014602 20 239 1.6 0.0 0.00 0.00 0.00 34 1012.4
20260903013050 20 193 1.6 0.0 0.00 0.00 0.00 34 1012.4
20260903011552 20 217 3.2 0.0 0.00 0.00 0.00 34 1012.4
20260903010040 20 227 3.2 0.0 0.00 0.00 0.00 33 1012.2
20260903004533 21 224 4.8 0.0 0.00 0.00 0.00 32 1012.2
20260903003046 21 186 3.2 0.0 0.00 0.00 0.00 31 1012.0
20260903001518 21 177 4.8 0.0 0.00 0.00 0.00 33 1012.1
20260903000010 20 250 4.8 0.0 0.00 0.00 0.00 35 1012.0
20260902203039 17 59 1.6 6.4 0.00 0.43 0.43 72 1013.6
20260902201521 18 51 0.0 4.8 0.00 0.43 0.43 71 1013.6
20260902200058 17 26 0.0 4.8 0.00 0.43 0.43 74 1013.8
20260902194550 17 30 0.0 8.0 0.00 0.43 0.43 73 1014.0
20260902193038 17 35 0.0 1.6 0.00 0.43 0.43 73 1014.2
20260902191520 16 268 0.0 1.6 0.00 0.43 0.43 76 1014.3
20260902190010 16 259 0.0 1.6 0.00 0.43 0.43 83 1014.4
20260902184558 15 268 0.0 9.7 0.00 0.43 0.43 86 1014.5
20260902183054 13 261 3.2 6.4 0.00 0.43 0.43 87 1014.5
20260902181556 13 286 0.0 4.8 0.00 0.43 0.43 89 1014.5
20260902180053 12 88 0.0 0.0 0.00 0.43 0.43 89 1014.4
20260902174602 12 120 0.0 3.2 0.00 0.43 0.43 90 1014.4
20260902173043 11 88 0.0 12.9 0.00 0.43 0.43 92 1014.5
20260902171523 11 150 0.0 8.0 0.05 0.43 0.43 92 1014.7
20260902170018 10 98 3.2 14.5 0.18 0.43 0.43 91 1014.4
20260902164506 11 46 4.8 25.7 0.25 0.43 0.43 90 1013.8
20260902163047 11 63 0.0 8.0 0.36 0.43 0.43 88 1014.4
20260902161537 11 44 0.0 3.2 0.36 0.38 0.38 87 1015.5
20260902160009 12 80 0.0 3.2 0.25 0.25 0.25 86 1015.9
20260902154555 12 284 0.0 0.0 0.18 0.18 0.20 85 1015.3
20260902153041 12 283 0.0 0.0 0.08 0.08 0.08 83 1015.2
20260902151517 13 280 0.0 0.0 0.03 0.03 0.03 79 1015.0
20260902150055 13 271 0.0 14.5 0.00 0.00 0.00 77 1014.7
20260902144546 13 254 3.2 11.3 0.00 0.00 0.00 66 1014.7
20260902143018 13 297 0.0 0.0 0.00 0.00 0.00 67 1014.3
20260902141521 13 84 0.0 0.0 0.00 0.00 0.00 67 1014.2
20260902140054 13 84 0.0 0.0 0.00 0.00 0.00 70 1013.7
20260902134539 13 53 0.0 0.0 0.00 0.00 0.00 73 1013.0
20260902133018 13 284 0.0 0.0 0.00 0.00 0.00 73 1012.6
20260902131503 13 285 0.0 0.0 0.00 0.00 0.00 73 1012.5
20260902130049 13 284 0.0 0.0 0.00 0.00 0.00 73 1012.2
20260902124539 14 284 0.0 0.0 0.00 0.00 0.00 72 1012.0
20260902123033 14 284 0.0 0.0 0.00 0.00 0.00 72 1011.8
20260902121519 13 284 0.0 4.8 0.00 0.00 0.00 73 1011.3
20260902120018 13 229 0.0 0.0 0.00 0.00 0.00 74 1011.5
20260902114603 13 229 0.0 4.8 0.00 0.00 0.00 75 1011.4